Location: Unspecified
(43.4680°N, 87.1740°E)
Time: 21:31:34
(UTC+00:00)

NOSS 3-1 (C) - Pass Details

Date: 17 April 2021
Orbit: 732 x 1476 km, 63.4° (Epoch: 18 April)

Event Time Altitude Azimuth Distance (km) Brightness Sun altitude
Rises 17:41:30 0° 322° (NW) 3,978 7.5 -35.4°
Reaches altitude 10° 17:44:02 10° 320° (NW) 3,113 6.7 -35.4°
Enters shadow 17:50:35 66° 288° (WNW) 1,417 4.2 -35.6°
